| time (UTC) | temp F | wind direction | speed MPH | gust MPH | rain 1hr in | rain 24hr in | rain mn in | humidity % | barometer mb |
| 20260906233034 | 76 | 296 | 6.0 | 13.0 | 0.00 | 0.00 | 0.00 | 37 | 1005.9 |
| 20260906231532 | 76 | 279 | 5.0 | 10.0 | 0.00 | 0.00 | 0.00 | 36 | 1005.7 |
| 20260906230030 | 74 | 304 | 6.0 | 17.0 | 0.00 | 0.00 | 0.00 | 37 | 1005.8 |
| 20260906224629 | 76 | 256 | 6.0 | 17.0 | 0.00 | 0.00 | 0.00 | 36 | 1005.5 |
| 20260906223031 | 80 | 299 | 7.0 | 16.0 | 0.00 | 0.00 | 0.00 | 33 | 1005.4 |
| 20260906221527 | 81 | 304 | 7.0 | 16.0 | 0.00 | 0.00 | 0.00 | 32 | 1005.2 |
| 20260906220026 | 78 | 300 | 6.0 | 14.0 | 0.00 | 0.00 | 0.00 | 32 | 1005.2 |
| 20260906214525 | 79 | 72 | 7.0 | 12.0 | 0.00 | 0.00 | 0.00 | 31 | 1004.9 |
| 20260906213124 | 80 | 304 | 3.0 | 7.0 | 0.00 | 0.00 | 0.00 | 34 | 1004.6 |
| 20260906211523 | 80 | 342 | 4.0 | 9.0 | 0.00 | 0.00 | 0.00 | 33 | 1004.6 |
| 20260906210023 | 81 | 306 | 3.0 | 7.0 | 0.00 | 0.00 | 0.00 | 32 | 1004.6 |
| 20260906204531 | 81 | 348 | 0.0 | 7.0 | 0.00 | 0.00 | 0.00 | 32 | 1004.4 |
| 20260906203021 | 82 | 272 | 2.0 | 6.0 | 0.00 | 0.00 | 0.00 | 31 | 1004.6 |
| 20260906201520 | 82 | 40 | 1.0 | 9.0 | 0.00 | 0.00 | 0.00 | 32 | 1004.6 |
| 20260906200118 | 82 | 319 | 2.0 | 8.0 | 0.00 | 0.00 | 0.00 | 31 | 1004.8 |
| 20260906194517 | 82 | 195 | 5.0 | 12.0 | 0.00 | 0.00 | 0.00 | 31 | 1005.0 |
| 20260906193014 | 85 | 276 | 5.0 | 11.0 | 0.00 | 0.00 | 0.00 | 29 | 1005.3 |
| 20260906191524 | 81 | 276 | 3.0 | 11.0 | 0.00 | 0.00 | 0.00 | 31 | 1005.6 |
| 20260906190009 | 82 | 34 | 4.0 | 11.0 | 0.00 | 0.00 | 0.00 | 29 | 1005.9 |
| 20260906184507 | 83 | 326 | 3.0 | 12.0 | 0.00 | 0.00 | 0.00 | 29 | 1006.2 |
| 20260906183010 | 84 | 169 | 2.0 | 10.0 | 0.00 | 0.00 | 0.00 | 29 | 1006.4 |
| 20260906181607 | 82 | 291 | 2.0 | 6.0 | 0.00 | 0.00 | 0.00 | 29 | 1006.5 |
| 20260906180002 | 81 | 198 | 2.0 | 11.0 | 0.00 | 0.00 | 0.00 | 29 | 1006.7 |
| 20260906174501 | 81 | 254 | 1.0 | 7.0 | 0.00 | 0.00 | 0.00 | 29 | 1006.9 |
| 20260906173106 | 81 | 224 | 1.0 | 7.0 | 0.00 | 0.00 | 0.00 | 28 | 1007.0 |
| 20260906171607 | 80 | 207 | 1.0 | 7.0 | 0.00 | 0.00 | 0.00 | 27 | 1007.0 |
| 20260906170109 | 81 | 282 | 1.0 | 8.0 | 0.00 | 0.00 | 0.00 | 28 | 1007.1 |
| 20260906164602 | 82 | 323 | 3.0 | 10.0 | 0.00 | 0.00 | 0.00 | 27 | 1007.1 |
| 20260906163107 | 82 | 147 | 1.0 | 8.0 | 0.00 | 0.00 | 0.00 | 30 | 1007.0 |
| 20260906161555 | 82 | 275 | 3.0 | 10.0 | 0.00 | 0.00 | 0.00 | 29 | 1006.9 |
| 20260906160054 | 82 | 134 | 6.0 | 11.0 | 0.00 | 0.00 | 0.00 | 29 | 1007.1 |
| 20260906154557 | 80 | 253 | 3.0 | 9.0 | 0.00 | 0.00 | 0.00 | 28 | 1007.0 |
| 20260906153049 | 80 | 175 | 2.0 | 12.0 | 0.00 | 0.00 | 0.00 | 28 | 1007.2 |
| 20260906151546 | 78 | 283 | 2.0 | 7.0 | 0.00 | 0.00 | 0.00 | 29 | 1007.1 |
| 20260906150043 | 75 | 217 | 1.0 | 5.0 | 0.00 | 0.00 | 0.00 | 31 | 1007.1 |
| 20260906144542 | 75 | 165 | 0.0 | 6.0 | 0.00 | 0.00 | 0.00 | 34 | 1007.1 |
| 20260906143041 | 75 | 117 | 2.0 | 6.0 | 0.00 | 0.00 | 0.00 | 34 | 1007.0 |
| 20260906141540 | 74 | 91 | 3.0 | 9.0 | 0.00 | 0.00 | 0.00 | 32 | 1007.2 |
| 20260906140036 | 74 | 114 | 2.0 | 5.0 | 0.00 | 0.00 | 0.00 | 32 | 1007.4 |
| 20260906134535 | 73 | 96 | 4.0 | 8.0 | 0.00 | 0.00 | 0.00 | 31 | 1007.2 |
| 20260906133032 | 72 | 139 | 2.0 | 7.0 | 0.00 | 0.00 | 0.00 | 32 | 1007.3 |
| 20260906131540 | 70 | 145 | 2.0 | 5.0 | 0.00 | 0.00 | 0.00 | 34 | 1007.3 |
| 20260906130028 | 71 | 117 | 3.0 | 8.0 | 0.00 | 0.00 | 0.00 | 33 | 1007.4 |
| 20260906124527 | 66 | 117 | 3.0 | 6.0 | 0.00 | 0.00 | 0.00 | 37 | 1007.4 |
| 20260906123026 | 66 | 143 | 1.0 | 3.0 | 0.00 | 0.00 | 0.00 | 38 | 1007.1 |
| 20260906121526 | 67 | 162 | 0.0 | 3.0 | 0.00 | 0.00 | 0.00 | 38 | 1006.9 |
| 20260906120025 | 67 | 161 | 1.0 | 3.0 | 0.00 | 0.00 | 0.00 | 37 | 1006.7 |
| 20260906114524 | 68 | 157 | 0.0 | 3.0 | 0.00 | 0.00 | 0.00 | 36 | 1006.7 |
| 20260906113024 | 70 | 141 | 1.0 | 6.0 | 0.00 | 0.00 | 0.00 | 34 | 1006.5 |
| 20260906111522 | 69 | 133 | 1.0 | 5.0 | 0.00 | 0.00 | 0.00 | 35 | 1006.5 |
| 20260906110021 | 69 | 130 | 0.0 | 5.0 | 0.00 | 0.00 | 0.00 | 35 | 1006.6 |
| 20260906104533 | 70 | 115 | 3.0 | 8.0 | 0.00 | 0.00 | 0.00 | 34 | 1006.6 |
| 20260906103021 | 70 | 153 | 2.0 | 7.0 | 0.00 | 0.00 | 0.00 | 34 | 1006.5 |
| 20260906101520 | 69 | 140 | 3.0 | 6.0 | 0.00 | 0.00 | 0.00 | 34 | 1006.7 |
| 20260906100019 | 71 | 157 | 3.0 | 7.0 | 0.00 | 0.00 | 0.00 | 32 | 1006.6 |
| 20260906094534 | 71 | 153 | 4.0 | 8.0 | 0.00 | 0.00 | 0.00 | 31 | 1006.7 |
| 20260906093027 | 71 | 77 | 4.0 | 9.0 | 0.00 | 0.00 | 0.00 | 32 | 1006.9 |
| 20260906091515 | 71 | 149 | 3.0 | 7.0 | 0.00 | 0.00 | 0.00 | 31 | 1006.9 |
| 20260906090015 | 71 | 85 | 4.0 | 11.0 | 0.00 | 0.00 | 0.00 | 31 | 1006.7 |
| 20260906084513 | 71 | 102 | 4.0 | 10.0 | 0.00 | 0.00 | 0.00 | 31 | 1006.9 |
| 20260906083016 | 71 | 155 | 4.0 | 12.0 | 0.00 | 0.00 | 0.00 | 31 | 1007.0 |
| 20260906081510 | 69 | 122 | 1.0 | 5.0 | 0.00 | 0.00 | 0.00 | 32 | 1007.4 |
| 20260906080004 | 69 | 150 | 1.0 | 8.0 | 0.00 | 0.00 | 0.00 | 32 | 1007.5 |
| 20260906074503 | 68 | 131 | 3.0 | 7.0 | 0.00 | 0.00 | 0.00 | 32 | 1007.4 |
| 20260906073002 | 66 | 132 | 2.0 | 5.0 | 0.00 | 0.00 | 0.00 | 34 | 1007.3 |
| 20260906071603 | 65 | 158 | 0.0 | 3.0 | 0.00 | 0.00 | 0.00 | 34 | 1007.5 |
| 20260906070059 | 66 | 177 | 1.0 | 4.0 | 0.00 | 0.00 | 0.00 | 33 | 1007.4 |
| 20260906064558 | 67 | 153 | 1.0 | 5.0 | 0.00 | 0.00 | 0.00 | 32 | 1007.5 |
| 20260906063058 | 65 | 133 | 2.0 | 5.0 | 0.00 | 0.00 | 0.00 | 33 | 1007.4 |
| 20260906061557 | 66 | 150 | 3.0 | 8.0 | 0.00 | 0.00 | 0.00 | 32 | 1007.4 |
| 20260906060150 | 68 | 155 | 2.0 | 9.0 | 0.00 | 0.00 | 0.00 | 30 | 1007.5 |
| 20260906054550 | 65 | 138 | 1.0 | 3.0 | 0.00 | 0.00 | 0.00 | 33 | 1007.5 |
| 20260906053053 | 67 | 143 | 2.0 | 7.0 | 0.00 | 0.00 | 0.00 | 31 | 1007.3 |
| 20260906051553 | 69 | 140 | 3.0 | 6.0 | 0.00 | 0.00 | 0.00 | 30 | 1007.2 |
| 20260906050047 | 70 | 102 | 4.0 | 8.0 | 0.00 | 0.00 | 0.00 | 30 | 1007.3 |
| 20260906044547 | 70 | 133 | 2.0 | 9.0 | 0.00 | 0.00 | 0.00 | 30 | 1007.3 |
| 20260906043046 | 70 | 117 | 4.0 | 9.0 | 0.00 | 0.00 | 0.00 | 30 | 1007.6 |
| 20260906041548 | 68 | 159 | 2.0 | 5.0 | 0.00 | 0.00 | 0.00 | 32 | 1007.6 |
| 20260906040044 | 69 | 214 | 1.0 | 9.0 | 0.00 | 0.00 | 0.00 | 32 | 1007.5 |
| 20260906034548 | 67 | 188 | 0.0 | 3.0 | 0.00 | 0.00 | 0.00 | 34 | 1007.4 |
| 20260906033045 | 68 | 141 | 1.0 | 4.0 | 0.00 | 0.00 | 0.00 | 34 | 1007.3 |
| 20260906031542 | 67 | 148 | 0.0 | 4.0 | 0.00 | 0.00 | 0.00 | 35 | 1006.9 |
| 20260906030042 | 67 | 170 | 1.0 | 5.0 | 0.00 | 0.00 | 0.00 | 36 | 1006.5 |
| 20260906024556 | 67 | 143 | 0.0 | 3.0 | 0.00 | 0.00 | 0.00 | 36 | 1006.3 |
| 20260906023042 | 69 | 142 | 1.0 | 5.0 | 0.00 | 0.00 | 0.00 | 34 | 1006.0 |
| 20260906021540 | 70 | 127 | 1.0 | 4.0 | 0.00 | 0.00 | 0.00 | 34 | 1005.7 |
| 20260906020046 | 74 | 141 | 0.0 | 2.0 | 0.00 | 0.00 | 0.00 | 31 | 1005.4 |
| 20260906014551 | 78 | 289 | 0.0 | 1.0 | 0.00 | 0.00 | 0.00 | 28 | 1005.1 |
| 20260906013043 | 81 | 278 | 0.0 | 5.0 | 0.00 | 0.00 | 0.00 | 26 | 1005.1 |
| 20260906011541 | 82 | 249 | 4.0 | 9.0 | 0.00 | 0.00 | 0.00 | 25 | 1005.1 |
| 20260906010036 | 83 | 280 | 2.0 | 7.0 | 0.00 | 0.00 | 0.00 | 25 | 1005.0 |
| 20260906004541 | 83 | 224 | 2.0 | 9.0 | 0.00 | 0.00 | 0.00 | 25 | 1005.1 |
| 20260906003047 | 84 | 257 | 0.0 | 9.0 | 0.00 | 0.00 | 0.00 | 24 | 1004.9 |
| 20260906001534 | 84 | 221 | 4.0 | 10.0 | 0.00 | 0.00 | 0.00 | 25 | 1004.9 |
| 20260906000034 | 84 | 325 | 1.0 | 9.0 | 0.00 | 0.00 | 0.00 | 25 | 1004.9 |
| 20260905234533 | 85 | 274 | 3.0 | 13.0 | 0.00 | 0.00 | 0.00 | 25 | 1004.9 |